Weather History for Vero Beach, FL

Change the Weather History Date:

Sunday, October 27, 2013

  Actual Average Record
Temperature  
Mean Temperature 67 °F 74 °F  
Max Temperature 80 °F 82 °F 89 °F (2009)
Min Temperature 54 °F 66 °F 50 °F (1943)
Degree Days  
Heating Degree Days 0 0  
Month to date heating degree days 0 0  
Since 1 July heating degree days 0 0  
Cooling Degree Days 2 9  
Month to date cooling degree days 305 325  
Year to date cooling degree days 3163 3092  
Growing Degree Days 17 (Base 50)    
Moisture  
Dew Point 59 °F    
Average Humidity 74    
Maximum Humidity 100    
Minimum Humidity 48    
Precipitation  
Precipitation 0.00 in 0.12 in 0.44 in (1989)
Month to date precipitation 0.52 4.47  
Year to date precipitation 34.82 45.96  
Sea Level Pressure  
Sea Level Pressure 30.09 in    
Wind  
Wind Speed 6 mph (NNW)    
Max Wind Speed 13 mph    
Max Gust Speed 20 mph    
Visibility 10 miles    
Events      
T = Trace of Precipitation, MM = Missing Value Source: NWS Daily Summary

Daily Weather History Graph

Daily Weather History Graph

Search for Another Location

Airport:

Trip Planner

Search our weather history database for the weather conditions in past years. The results will help you decide how hot, cold, wet, or windy it might be!

Date:

Astronomy

Oct. 27, 2013 Rise Set
Actual Time 7:29 AM EDT 6:41 PM EDT
Civil Twilight 7:05 AM EDT 7:05 PM EDT
Nautical Twilight 6:37 AM EDT 7:32 PM EDT
Astronomical Twilight 6:10 AM EDT 8:00 PM EDT
Moon 12:59 AM EDT (10/27) 2:17 PM EDT (10/27)
Length of Visible Light 12h 00m
Length of Day
11h 12m
Last Quarter, 44% of the Moon is Illuminated
Oct 27
Last Quarter
Nov 3
New
Nov 10
First Quarter
Nov 17
Full
Nov 25
Last Quarter

Hourly Weather History & Observations

Time (EDT) Temp. Dew Point Humidity Pressure Visibility Wind Dir Wind Speed Gust Speed Precip Events Conditions
12:53 AM 55.0 °F 54.0 °F 96% 30.10 in 10.0 mi Calm Calm - N/A   Clear
1:53 AM 57.0 °F 55.0 °F 93% 30.10 in 10.0 mi Calm Calm - N/A   Clear
2:53 AM 57.0 °F 55.9 °F 96% 30.08 in 10.0 mi NW 3.5 mph - N/A   Clear
3:53 AM 59.0 °F 57.0 °F 93% 30.07 in 10.0 mi West 3.5 mph - N/A   Clear
4:53 AM 57.0 °F 57.0 °F 100% 30.06 in 10.0 mi WNW 3.5 mph - N/A   Clear
5:53 AM 57.0 °F 57.0 °F 100% 30.07 in 10.0 mi Calm Calm - N/A   Clear
6:53 AM 57.0 °F 57.0 °F 100% 30.09 in 10.0 mi NW 3.5 mph - N/A   Clear
7:53 AM 57.0 °F 57.0 °F 100% 30.09 in 9.0 mi NW 6.9 mph - N/A   Clear
8:53 AM 64.9 °F 62.1 °F 90% 30.12 in 10.0 mi Variable 5.8 mph - N/A   Clear
9:53 AM 73.0 °F 63.0 °F 71% 30.12 in 10.0 mi NNW 6.9 mph - N/A   Clear
10:53 AM 75.9 °F 62.1 °F 62% 30.12 in 10.0 mi North 10.4 mph - N/A   Clear
11:53 AM 78.1 °F 57.9 °F 50% 30.12 in 10.0 mi North 9.2 mph 16.1 mph N/A   Clear
12:53 PM 78.1 °F 57.9 °F 50% 30.11 in 10.0 mi NNE 9.2 mph - N/A   Clear
1:53 PM 79.0 °F 59.0 °F 50% 30.09 in 10.0 mi NNE 9.2 mph - N/A   Clear
2:53 PM 79.0 °F 57.9 °F 48% 30.08 in 10.0 mi North 10.4 mph - N/A   Clear
3:53 PM 79.0 °F 59.0 °F 50% 30.07 in 10.0 mi NE 10.4 mph - N/A   Clear
4:53 PM 77.0 °F 59.0 °F 54% 30.08 in 10.0 mi North 11.5 mph - N/A   Clear
5:53 PM 75.0 °F 60.1 °F 60% 30.08 in 10.0 mi North 6.9 mph - N/A   Clear
6:53 PM 69.1 °F 60.1 °F 73% 30.08 in 10.0 mi North 4.6 mph - N/A   Clear
7:53 PM 66.9 °F 61.0 °F 81% 30.09 in 10.0 mi North 4.6 mph - N/A   Clear
8:53 PM 64.0 °F 61.0 °F 90% 30.11 in 10.0 mi NNW 3.5 mph - N/A   Clear
9:53 PM 63.0 °F 61.0 °F 93% 30.11 in 10.0 mi North 4.6 mph - N/A   Clear
10:53 PM 63.0 °F 61.0 °F 93% 30.12 in 10.0 mi Calm Calm - N/A   Clear
11:53 PM 62.1 °F 60.1 °F 93% 30.11 in 10.0 mi Calm Calm - N/A   Clear